Location: Sabalos
(43.2860°N, 0.1414°E)
Time: 21:12:10
(UTC+00:00)

Helios 1A - Pass Details

Date: 05 July 2020
Orbit: 587 x 600 km, 98.2° (Epoch: 11 August)

Event Time Altitude Azimuth Distance (km) Brightness Sun altitude
Exits shadow 23:24:49 36° 82° (E) 941 3.9 -23.4°
Maximum altitude 23:25:09 37° 70° (ENE) 930 4.0 -23.4°
Drops below altitude 10° 23:28:59 10° 3° (N) 1,922 6.6 -23.6°
Sets 23:31:16 0° 355° (N) 2,829 7.9 -23.6°
